Location: Cormont
(50.5693°N, 1.7416°E)
Time: 20:57:07
(UTC+00:00)

STARLINK-79 - Pass Details

Date: 21 October 2019
Orbit: 548 x 551 km, 53.0° (Epoch: 20 November)

Event Time Altitude Azimuth Distance (km) Brightness Sun altitude
Rises 19:26:39 0° 287° (WNW) 2,721 8.5 -25.5°
Reaches altitude 10° 19:28:53 10° 289° (WNW) 1,826 7.3 -25.8°
Enters shadow 19:32:04 51° 301° (WNW) 700 4.4 -26.3°
